Regional Weather Roundup
Issued by NWS Cleveland, OH

Home | Current Version | Previous Version | Graphics & Text | Print | Product List | Glossary On
Versions: 1 2 3 4 5 6 7 8 9 10 11 12 13 14 15 16 17 18 19 20 21 22 23 24 25 26 27 28 29 30 31 32 33 34 35 36 37 38 39 40 41 42 43 44 45 46 47 48 49 50
000
ASUS41 KCLE 270102
RWRCLE
OHIO REGIONAL WEATHER ROUNDUP
NATIONAL WEATHER SERVICE CLEVELAND, OH
900 PM EDT TUE JUL 26 2016

NOTE: "FAIR" INDICATES FEW OR NO CLOUDS BELOW 12,000 FEET WITH NO
SIGNIFICANT WEATHER AND/OR OBSTRUCTIONS TO VISIBILITY.

OHZ001>008-015>018-024>027-034-035-043-044-270200-
   NORTHWEST OHIO

CITY           SKY/WX    TMP DP  RH WIND       PRES   REMARKS
DEFIANCE       PTCLDY    80  65  59 NE3       30.00S
FINDLAY        CLEAR     81  60  48 NE8       30.00S
TOLEDO EXPRESS CLEAR     80  64  58 VRB3      30.00S
TOLEDO EXEC    CLEAR     80  60  50 SE7       30.01S
LIMA           PTCLDY    79  69  71 CALM      30.01S
$$

OHZ009>014-019>023-028>033-038-089-270200-
   NORTHEAST OHIO

CITY           SKY/WX    TMP DP  RH WIND       PRES   REMARKS
CLE-HOPKINS    PTCLDY    78  55  44 NE5       30.03S
CLE-LAKEFRONT  CLEAR     76  64  66 N3        30.00S
CUY CO. ARPT   PTCLDY   N/A N/A N/A E7        30.03R
LORAIN-ELYRIA  CLEAR     73  57  57 NE3       30.02S
ASHTABULA      CLEAR     69  64  84 CALM      30.03S
AKRON-CANTON   CLOUDY    75  57  53 N8        30.03R
WOOSTER        CLOUDY    74  56  53 N6        30.03R
MANSFIELD      CLOUDY    76  59  55 N5        30.03S
YOUNGSTOWN     PTCLDY    73  58  59 N7        30.03R
$$

OHZ042-051>053-060>062-070>072-077>081-270200-
  SOUTHWEST OHIO

CITY           SKY/WX    TMP DP  RH WIND       PRES   REMARKS
CINC-COVINGTON CLOUDY    80  74  81 CALM      30.01R
CINC-LUNKEN    CLOUDY    79  76  90 CALM      30.00R
HAMILTON       CLOUDY    79  73  82 CALM      30.01R
DAYTON         CLOUDY    78  67  68 NW5       30.02R
WRIGHT-PAT AFB CLOUDY    80  70  70 NW3       30.00S
DAYTON GENERAL CLOUDY    81  69  67 N3        30.00S
WILMINGTON     PTCLDY    77  73  87 CALM      30.01R
$$

OHZ036-037-039>041-045>050-054>059-063>069-073>076-082>088-270200-
  CENTRAL AND SOUTHEAST OHIO

CITY           SKY/WX    TMP DP  RH WIND       PRES   REMARKS
COLUMBUS       CLOUDY    80  70  71 S5        29.99R
OSU AIRPORT    CLOUDY    79  68  69 NW3       30.00R
BOLTON FIELD   CLOUDY    78  73  86 CALM      30.01R
RICKENBACK AFB CLOUDY    77  73  87 CALM      30.00R
NEWARK         CLOUDY    79  72  79 CALM      30.00R
MARION         PTCLDY    75  65  70 N7        30.02R
LANCASTER      CLOUDY    76  74  93 CALM      30.01R
ZANESVILLE     CLOUDY    80  71  74 SW5       30.00S
NEW PHILLY     CLOUDY    82  63  52 NE3       30.00R
$$




USA.gov is the U.S. government's official web portal to all federal, state and local government web resources and services.